W0ZMA Weather Reports


Display with metric or nautical units.
time (UTC)temp
F
wind
direction
speed
MPH
gust
MPH
rain 1hr
in
rain 24hr
in
rain mn
in
humidity
%
barometer
mb
20260509204531 79 207 0.0 3.0 0.00 8.85 2.85 47 1008.8
20260509203029 79 217 0.0 5.0 0.00 8.85 2.85 50 1008.8
20260509201524 78 292 1.0 4.0 0.00 8.85 2.85 49 1008.8
20260509200023 78 307 0.0 2.0 0.00 8.85 2.85 52 1009.0
20260509194522 78 290 0.0 2.0 0.00 8.85 2.85 53 1009.1
20260509193027 77 173 0.0 5.0 0.00 8.85 2.85 56 1009.2
20260509191519 77 159 1.0 3.0 0.00 8.85 2.85 58 1009.4
20260509190022 77 164 0.0 4.0 0.00 8.85 2.85 55 1009.6
20260509184520 77 277 0.0 3.0 0.00 8.88 2.85 56 1009.7
20260509183014 76 290 0.0 4.0 0.00 8.88 2.85 58 1009.8
20260509181514 76 284 0.0 3.0 0.00 8.88 2.85 60 1009.7
20260509180010 75 261 0.0 4.0 0.00 8.88 2.85 57 1009.6
20260509174512 75 257 0.0 3.0 0.00 9.75 2.85 59 1009.6
20260509173003 74 275 0.0 4.0 0.00 9.75 2.85 61 1009.7
20260509171627 74 311 0.0 4.0 0.00 9.75 2.85 63 1009.7
20260509170057 73 277 0.0 3.0 0.00 9.75 2.85 65 1009.6
20260509164553 72 300 0.0 4.0 0.00 9.96 2.85 63 1009.7
20260509163051 72 238 0.0 3.0 0.00 9.96 2.85 65 1009.7
20260509161549 72 276 0.0 4.0 0.00 9.96 2.85 66 1009.6
20260509160042 71 288 0.0 4.0 0.00 9.96 2.85 67 1009.6
20260509154538 70 285 0.0 3.0 0.38 9.97 2.85 70 1009.5
20260509153037 69 287 0.0 4.0 1.49 9.97 2.85 72 1009.6
20260509151533 68 290 1.0 5.0 1.50 9.97 2.85 74 1009.6
20260509150030 67 286 0.0 3.0 1.50 9.97 2.85 75 1009.4
20260509144528 66 209 0.0 2.0 1.03 1.01 2.80 82 1009.3
20260509143025 64 209 1.0 4.0 0.01 1.00 2.70 82 1009.2
20260509141523 62 206 0.0 4.0 0.00 1.00 2.70 85 1009.3
20260509140014 61 207 1.0 5.0 0.00 1.00 2.70 87 1009.3
20260509134509 60 194 0.0 1.0 0.09 1.00 2.70 89 1009.2
20260509133007 59 196 1.0 6.0 1.15 1.00 2.70 88 1009.3
20260509131507 59 195 0.0 3.0 1.50 1.00 2.70 89 1009.4
20260509130005 58 178 0.0 3.0 1.50 1.00 2.70 90 1009.3
20260509124503 57 163 0.0 3.0 1.41 1.00 2.69 91 1009.2
20260509123002 57 136 0.0 4.0 0.10 9.95 2.56 93 1009.3
20260509121606 56 147 0.0 4.0 0.00 9.94 2.55 94 1009.3
20260509120108 55 144 0.0 0.0 0.12 9.94 2.55 94 1009.2
20260509114603 55 144 0.0 0.0 0.48 9.94 2.55 93 1008.8
20260509113056 55 144 0.0 1.0 0.48 9.94 2.55 93 1008.5
20260509111554 55 151 0.0 0.0 0.48 9.94 2.55 93 1008.4
20260509110053 55 151 0.0 0.0 0.36 9.92 2.54 92 1008.2
20260509104552 55 151 0.0 0.0 0.00 9.89 2.50 92 1007.8
20260509103049 55 151 0.0 1.0 0.00 9.89 2.50 91 1007.9
20260509101551 55 191 0.0 2.0 0.00 9.89 2.50 91 1008.0
20260509100055 55 194 0.0 6.0 0.00 9.89 2.50 90 1008.0
20260509094552 55 147 0.0 2.0 0.00 9.89 2.50 90 1007.9
20260509093046 55 147 0.0 1.0 0.03 9.89 2.50 90 1008.0
20260509091546 55 147 0.0 1.0 0.03 9.89 2.50 89 1008.0
20260509090046 56 147 0.0 0.0 1.75 9.89 2.50 88 1008.0
20260509084542 56 147 0.0 0.0 4.40 9.89 2.50 87 1008.3
20260509083042 57 147 0.0 1.0 4.82 9.88 2.50 86 1008.5
20260509081545 57 147 0.0 2.0 7.52 9.88 2.50 85 1008.4
20260509080041 57 147 0.0 2.0 7.29 9.70 2.32 84 1008.2
20260509074538 58 157 0.0 3.0 7.80 9.45 2.06 84 1008.2
20260509073034 58 144 1.0 4.0 1.07 9.39 2.01 83 1008.3
20260509071535 58 206 0.0 4.0 1.14 9.12 1.73 82 1008.2
20260509070031 58 187 0.0 3.0 1.25 8.97 1.58 82 1008.3
20260509064529 58 137 0.0 3.0 1.12 9.70 1.27 82 1008.5
20260509063026 58 164 0.0 3.0 9.25 9.34 9.26 82 1009.0
20260509061525 58 180 0.0 7.0 5.85 9.00 5.86 81 1009.2
20260509060023 58 164 0.0 2.0 3.19 8.74 3.19 81 1009.3
20260509054524 58 182 0.0 3.0 1.51 9.48 1.51 80 1009.6
20260509053024 58 115 0.0 0.0 0.02 9.33 0.01 79 1009.5
20260509051528 59 115 0.0 2.0 0.03 9.33 0.01 79 1009.4
20260509050020 59 109 0.0 0.0 0.03 9.33 0.00 78 1009.5
20260509044516 59 116 0.0 3.0 0.03 1.07 9.33 78 1009.7
20260509043015 60 148 0.0 2.0 0.02 1.07 9.33 76 1009.4
20260509041515 60 101 0.0 4.0 0.01 1.07 9.33 74 1009.2
20260509040016 61 113 0.0 7.0 0.67 1.07 9.33 73 1009.3
20260509034515 61 144 0.0 5.0 0.67 1.13 9.33 72 1009.4
20260509033013 61 115 1.0 3.0 0.67 1.13 9.33 72 1009.4
20260509031512 61 154 0.0 5.0 0.67 1.13 9.33 72 1009.5
20260509030012 59 97 0.0 4.0 0.00 1.12 9.26 76 1009.7
20260509024511 58 81 0.0 0.0 0.00 1.26 9.26 79 1009.6
20260509023015 58 81 0.0 0.0 0.11 1.26 9.26 80 1009.3
20260509021515 58 99 0.0 0.0 0.11 1.26 9.26 80 1009.4
20260509020010 59 99 0.0 0.0 1.40 1.26 9.26 79 1009.4
20260509014509 60 99 0.0 0.0 4.88 1.34 9.26 76 1009.3
20260509013026 61 99 0.0 0.0 8.21 1.34 9.25 74 1009.2
20260509011508 62 99 0.0 0.0 1.18 1.34 9.25 70 1009.2
20260509010007 64 99 0.0 0.0 1.39 1.33 9.11 66 1009.1
20260509004506 65 99 0.0 0.0 1.37 1.31 8.75 61 1009.1
20260509003006 67 101 0.0 0.0 1.39 1.28 8.40 58 1009.1
20260509001507 69 102 0.0 0.0 1.37 1.24 8.04 54 1009.2
20260509000004 70 102 0.0 2.0 1.37 1.21 7.69 49 1009.2
20260508234505 71 99 0.0 1.0 1.37 1.31 7.35 48 1009.3
20260508233002 72 158 0.0 5.0 1.38 1.28 7.00 47 1009.4
20260508231605 72 178 0.0 7.0 1.40 1.24 6.67 45 1009.6
20260508224607 74 159 1.0 5.0 1.40 1.31 5.97 44 1009.8
20260508223057 74 115 1.0 6.0 1.40 1.28 5.61 44 1009.9
20260508221603 74 163 2.0 8.0 1.40 1.24 5.27 42 1009.9
20260508220055 74 190 0.0 8.0 1.27 1.21 4.91 46 1009.9
20260508214553 74 121 1.0 4.0 1.14 1.26 4.55 44 1009.9
20260508213112 74 151 0.0 5.0 8.67 1.22 4.21 44 1010.0
20260508211551 74 152 1.0 6.0 5.22 1.19 3.86 40 1010.0
20260508210049 73 179 1.0 5.0 3.06 1.16 3.64 43 1010.2